This is the latest recevied weather packets stored in our database for station/object KO4DYK. If no packets are shown the sender has not sent any weather packets the latest 10 day(s).
| Time | Temp. | Humidity | Pressure | Rain* | Wind** | Luminosity | Snow |
|---|---|---|---|---|---|---|---|
| 1777469341 | 19.44° C | 99% | 1017.7 hPa | 0 mm | - | 167 W/m² | - |
| 1777469037 | 18.89° C | 99% | 1017.5 hPa | 0 mm | - | 232 W/m² | - |
| 1777468732 | 18.89° C | 99% | 1017.4 hPa | 0 mm | - | 129 W/m² | - |
| 1777468429 | 18.89° C | 99% | 1017.4 hPa | 0 mm | - | 127 W/m² | - |
| 1777468124 | 18.89° C | 99% | 1017.1 hPa | 0 mm | - | 105 W/m² | - |
| 1777467821 | 18.89° C | 99% | 1017.2 hPa | 0 mm | - | 67 W/m² | - |
| 1777467516 | 18.89° C | 99% | 1017 hPa | 0 mm | - | 41 W/m² | - |
| 1777467212 | 18.89° C | 99% | 1017 hPa | 0 mm | - | 32 W/m² | - |
| 1777466909 | 18.89° C | 99% | 1016.8 hPa | 0 mm | - | 43 W/m² | - |
| 1777466607 | 18.89° C | 99% | 1016.5 hPa | 0 mm | - | 54 W/m² | - |
| 1777466303 | 19.44° C | 99% | 1016.5 hPa | 0 mm | - | 41 W/m² | - |
| 1777466000 | 18.89° C | 99% | 1016.6 hPa | 0 mm | - | 52 W/m² | - |
| 1777465696 | 18.89° C | 99% | 1016.5 hPa | 0 mm | - | 33 W/m² | - |
| 1777465392 | 18.89° C | 99% | 1016.3 hPa | 0 mm | - | 30 W/m² | - |
| 1777465090 | 18.89° C | 99% | 1016.1 hPa | 0 mm | - | 39 W/m² | - |
| 1777464786 | 18.89° C | 99% | 1016 hPa | 0 mm | - | 51 W/m² | - |
| 1777464482 | 18.89° C | 99% | 1016.3 hPa | 0 mm | - | 26 W/m² | - |
| 1777464178 | 18.89° C | 99% | 1016.2 hPa | 0 mm | - | 22 W/m² | - |
| 1777463878 | 18.89° C | 99% | 1016.3 hPa | 0 mm | - | 17 W/m² | - |
| 1777463574 | 18.89° C | 99% | 1016.1 hPa | 0 mm | - | 14 W/m² | - |
| 1777463268 | 18.89° C | 99% | 1016.2 hPa | 0 mm | - | 13 W/m² | - |
| 1777462965 | 18.89° C | 99% | 1015.9 hPa | 0 mm | - | 10 W/m² | - |
| 1777462661 | 18.89° C | 99% | 1016.1 hPa | 0 mm | - | 4 W/m² | - |
| 1777462356 | 18.89° C | 99% | 1016 hPa | 0 mm | - | 4 W/m² | - |
| 1777462052 | 18.89° C | 99% | 1016.1 hPa | 0 mm | - | 1 W/m² | - |
* Rain latest hour (hover to see other rain measurements)
** Current wind speed in m/s (hover to see current wind gust speed)